STARLINK-36675

Last updated on Thu Mar 05 2026 00:02:08 GMT+0000 (Coordinated Universal Time)

1 67663U 26022R 26063.31012445 .00345331 00000+0 22131-2 0 9996 2 67663 97.2822 97.0444 0002005 131.3776 228.7662 15.75300862 4704
UTC large
Height (km)
Speed (km/s)
/
Latitude / Longitude
Inclination (degrees)
Orbital Period (minutes)
Azimuth
Elevation
Range (km)
Doppler Factor

Next 0 passes for location: London (51.5072 / 0.1276)

Sorry there are no passes over London.